Flag for Austria Weather past 2 weeks in Jennersdorf, Burgenland, Austria

Now
69 °F

Mild.


Feels Like: 69 °F
Forecast: 51 / 70 °F
Wind: 1 mph from Southeast

Location: Murska Sobota

Current Time: Aug 22, 2014 at 8:29:34 PM

Latest Report: Aug 22, 2014 at 7:00 PM


Visibility: N/A

Pressure: 29.98 "Hg

Humidity: 73%

Dew point: 60 °F

Location of JennersdorfLocation

Historic Weather in Jennersdorf — Graph

°F

Jennersdorf temperature yesterday

Maximum temperature yesterday: 72 °F (at 4:00 PM)
Minimum temperature yesterday: 55 °F (at 6:00 AM)
Average temperature yesterday: 62 °F

Past Weeks' High & Low Weather Summary

 TemperatureHumidityPressure
High86 °F (Aug 11, 4:00 PM)100% (Aug 10, 3:00 AM)30.10 "Hg (Aug 10, 3:00 AM)
Low49 °F (Aug 18, 6:00 AM)45% (Aug 17, 5:00 PM)29.64 "Hg (Aug 13, 8:00 PM)
Average66 °F82%29.95 "Hg
* Reported Aug 7 7:00 PM — Aug 22 7:00 PM, Jennersdorf, Weather by CustomWeather, © 2014

Note: Actual official high and low records may vary slightly from our data, if they occured in-between our weather recording intervals... More about our weather records

Advertising

Jennersdorf weather history for previous 24 hours

 ConditionsComfort  
Time TempWeatherWind HumidityBarometerVisibility
7:00 PM
Aug 22
69 °FMild.1 mph73%29.98 "HgN/A
6:00 PM70 °FMild.1 mph70%29.98 "HgN/A
5:00 PM71 °FMild.1 mph66%30.00 "HgN/A
4:00 PM71 °FMild.1 mph68%30.01 "HgN/A
3:00 PM69 °FOvercast.1 mph69%30.02 "Hg6 mi
2:00 PM69 °FOvercast.2 mph68%30.04 "Hg6 mi
1:00 PM67 °FMild.1 mph71%30.04 "HgN/A
12:00 PM66 °FMild.1 mph70%30.05 "HgN/A
11:00 AM64 °FMild.2 mph76%30.06 "HgN/A
10:00 AM62 °FCool.1 mph83%30.06 "HgN/A
9:00 AM59 °FCool.1 mph91%30.06 "HgN/A
8:00 AM56 °FOvercast.1 mph99%30.06 "Hg6 mi
7:00 AM54 °FFog.1 mph100%30.06 "Hg1 mi
6:00 AM52 °FCool.1 mph99%30.06 "HgN/A
5:00 AM52 °FCool.No wind97%30.06 "HgN/A
4:00 AM54 °FCool.No wind98%30.06 "HgN/A
3:00 AM56 °FCool.1 mph97%30.06 "HgN/A
2:00 AM57 °FCool.1 mph97%30.07 "HgN/A
1:00 AM57 °FCool.1 mph96%30.07 "HgN/A
12:00 AM56 °FCool.No wind96%30.08 "HgN/A
11:00 PM
Aug 21
56 °FCool.1 mph94%30.07 "HgN/A
10:00 PM58 °FCool.No wind92%30.07 "HgN/A
9:00 PM62 °FMild.1 mph83%30.06 "HgN/A
8:00 PM65 °FPassing clouds.1 mph72%30.03 "Hg6 mi
Weather by CustomWeather, © 2014

See weather overviewHow to use our weather pages